Regional Weather Roundup
Issued by NWS

Home | Current Version | Previous Version | Graphics & Text | Print | Product List | Glossary On
Versions: 1 2 3 4 5 6 7 8 9 10 11 12 13 14 15 16 17 18 19 20 21 22 23 24 25 26 27 28 29 30 31 32 33 34 35 36 37 38 39 40 41 42 43 44 45 46 47 48 49 50
000
ASUS43 KDMX 282001
RWRIA

WEATHER ROUNDUP FOR IOWA
NATIONAL WEATHER SERVICE DES MOINES IA
300 PM CDT WED JUN 28 2017

NOTE: "FAIR" INDICATES FEW OR NO CLOUDS BELOW 12,000 FEET WITH NO
SIGNIFICANT WEATHER AND/OR OBSTRUCTIONS TO VISIBILITY.

* - THESE STATIONS ARE NOT NWS STATIONS...THUS NOT UNDER NWS
QUALITY CONTROL.  THEY ALSO DO NOT REPORT WEATHER SUCH
AS PRECIPITATION OR FOG.

IAZ001>003-012>014-020>022-031>034-043>046-282100-
   NORTHWEST IOWA

CITY           SKY/WX    TMP DP  RH WIND       PRES   REMARKS
CARROLL *      CLOUDY    86  72  62 S20G25    29.64F HX  92
CHEROKEE *     MOSUNNY   85  67  56 W14G23    29.62S HX  87
DENISON *      MOSUNNY   86  70  58 SW18G26   29.66S HX  90
LE MARS *      SUNNY     86  64  48 NW12      29.63S HX  87
ORANGE CITY *  SUNNY     84  64  51 W14G20    29.63S HX  86
SHELDON *      SUNNY     82  64  54 W14       29.61S HX  84
SIOUX CITY     SUNNY     87  66  49 W14       29.62S HX  89
SPENCER        MOSUNNY   84  67  56 W12       29.62S HX  86
STORM LAKE *   MOSUNNY   82  72  69 W14G23    29.63F HX  87
$$

IAZ055>058-069>071-079>083-090>094-282100-
   SOUTHWEST IOWA

CITY           SKY/WX    TMP DP  RH WIND       PRES   REMARKS
ATLANTIC *     PTSUNNY   81  73  78 S13       29.68S HX  85
AUDUBON *      SUNNY     82  73  74 S13G20    29.68F HX  88
CLARINDA *     PTSUNNY   84  75  74 SW10      29.71F HX  92
COUNCIL BLFS * PTSUNNY   84  73  70 SW14      29.67S HX  91
CRESTON *      PTSUNNY   82  72  69 S17G24    29.73F HX  87
HARLAN  *      MOSUNNY   84  73  70 SW17G24   29.69F HX  91
LAMONI         PTSUNNY   84  72  67 S20G25    29.74F HX  89
RED OAK *      PTSUNNY   84  73  70 SW14G20   29.69S HX  91
SHENANDOAH *   PTSUNNY   86  73  66 SW12G17   29.68F HX  93
$$

IAZ047>049-059>061-072>074-084-282100-
   CENTRAL IOWA

CITY           SKY/WX    TMP DP  RH WIND       PRES   REMARKS
AMES           PTSUNNY   83  73  72 S20G31    29.66F HX  89
ANKENY *       PTSUNNY   82  70  65 S16G28    29.69F HX  86
BOONE *        PTSUNNY   82  72  69 SW17G24   29.66S HX  87
CHARITON *     MOSUNNY   84  72  65 SW18G26   29.74F HX  89
DES MOINES     PTSUNNY   85  70  60 S21G33    29.69F HX  89
GRINNELL*      CLOUDY    81  68  65 SW18G28   29.73F HX  84
KNOXVILLE *    MOSUNNY   82  70  65 SW20G26   29.71F HX  86
MARSHALLTOWN   MOSUNNY   84  70  62 S23G30    29.67F HX  88
NEWTON *       PTSUNNY   81  70  69 SW21G31   29.71F HX  84
PELLA *        PTSUNNY   83  68  61 SW16G24   29.73F HX  86
PERRY *        PTSUNNY   84  73  69 SW20G28   29.67F HX  89
$$

IAZ004>006-015-016-023>025-035-036-282100-
   NORTH CENTRAL IOWA

CITY           SKY/WX    TMP DP  RH WIND       PRES   REMARKS
ALGONA *       CLOUDY    79  73  83 SW13G20   29.63S HX  82
CLARION *        N/A     75  73  94 W7        29.66R
ESTHERVILLE    MOSUNNY   81  70  69 SW15G22   29.61S HX  84
FORT DODGE *   CLOUDY    75  66  73 CALM      29.65F
MASON CITY     TSTM      70  67  90 S14G20    29.66F
FOREST CITY *    N/A     75  64  69 S14G22    29.64S
WEBSTER CITY * PTSUNNY   81  68  65 SW16G25   29.63S HX  83
IOWA FALLS *   PTSUNNY   82  70  67 S16       29.66F HX  85
$$

IAZ007>011-017>019-026>030-037>042-050>054-066-282100-
   NORTHEAST IOWA

CITY           SKY/WX    TMP DP  RH WIND       PRES   REMARKS
CEDAR RAPIDS   PTSUNNY   82  72  71 SW15G25   29.73F HX  87
CHARLES CITY * HVY RAIN  70  70 100 SW8G18    29.68F
CLINTON *      CLOUDY    79  70  74 S28G35    29.77F HX  82
DECORAH *      LGT RAIN  70  68  94 S7        29.68F
DUBUQUE        CLOUDY    76  68  76 S21G28    29.75F
MONTICELLO *   MOSUNNY   81  70  69 S16G26    29.73F HX  84
OELWEIN *      PTSUNNY   77  70  78 S9        29.70F
WATERLOO       CLOUDY    78  68  71 S16       29.66F HX  80
$$

IAZ064-065-067-068-078-282100-
   EAST CENTRAL IOWA

CITY           SKY/WX    TMP DP  RH WIND       PRES   REMARKS
IOWA CITY      CLOUDY    84  68  58 SW18G29   29.75F HX  87
MT. PLEASANT * CLOUDY    83  67  59 SW18G29   29.78S HX  85
MUSCATINE *    CLOUDY    82  68  61 S21G28    29.76F HX  85
QUAD CITIES    CLOUDY    79  68  69 S18G25    29.78F HX  81
$$

IAZ062-063-075>077-085>089-095>099-282100-
   SOUTHEAST IOWA

CITY           SKY/WX    TMP DP  RH WIND       PRES   REMARKS
BURLINGTON     LGT RAIN  80  71  74 S15G26    29.79F HX  84
FAIRFIELD *    PTSUNNY   84  68  58 S22G29    29.76S HX  87
FORT MADISON * CLOUDY    84  70  61 SW20G25   29.81S HX  88
KEOKUK *       MOSUNNY   82  70  65 S18G26    29.80F HX  86
OSKALOOSA *    PTSUNNY   83  69  62 SW20G28   29.75F HX  86
OTTUMWA        PTSUNNY   86  70  58 SW18G31   29.75R HX  90
WASHINGTON *   CLOUDY    84  70  61 SW17G28   29.77S HX  88
$$

ABBREVIATIONS USED IN REMARKS
   TC - TEMPERATURES IN CELSIUS
  WCI - WIND CHILL INDEX
   HX - HEAT INDEX
  VSB - VISIBILITY
$$





USA.gov is the U.S. government's official web portal to all federal, state and local government web resources and services.